Year,Month,Day,Hour,Minute,Value (Times are PST for insolation in W/m^2)
2018,08,05,00,00,0.00
2018,08,05,00,01,0.00
2018,08,05,00,02,0.00
2018,08,05,00,03,0.00
2018,08,05,00,04,0.00
2018,08,05,00,05,0.00
2018,08,05,00,06,0.00
2018,08,05,00,07,0.00
2018,08,05,00,08,0.00
2018,08,05,00,09,0.00
2018,08,05,00,10,0.00
2018,08,05,00,11,0.00
2018,08,05,00,12,0.00
2018,08,05,00,13,0.00
2018,08,05,00,14,0.00
2018,08,05,00,15,0.00
2018,08,05,00,16,0.00
2018,08,05,00,17,0.00
2018,08,05,00,18,0.00
2018,08,05,00,19,0.00
2018,08,05,00,20,0.00
2018,08,05,00,21,0.00
2018,08,05,00,22,0.00
2018,08,05,00,23,0.00
2018,08,05,00,24,0.00
2018,08,05,00,25,0.00
2018,08,05,00,26,0.00
2018,08,05,00,27,0.00
2018,08,05,00,28,0.00
2018,08,05,00,29,0.00
2018,08,05,00,30,0.00
2018,08,05,00,31,0.00
2018,08,05,00,32,0.00
2018,08,05,00,33,0.00
2018,08,05,00,34,0.00
2018,08,05,00,35,0.00
2018,08,05,00,36,0.00
2018,08,05,00,37,0.00
2018,08,05,00,38,0.00
2018,08,05,00,39,0.00
2018,08,05,00,40,0.00
2018,08,05,00,41,0.00
2018,08,05,00,42,0.00
2018,08,05,00,43,0.00
2018,08,05,00,44,0.00
2018,08,05,00,45,0.00
2018,08,05,00,46,0.00
2018,08,05,00,47,0.00
2018,08,05,00,48,0.00
2018,08,05,00,49,0.00
2018,08,05,00,50,0.00
2018,08,05,00,51,0.00
2018,08,05,00,52,0.00
2018,08,05,00,53,0.00
2018,08,05,00,54,0.00
2018,08,05,00,55,0.00
2018,08,05,00,56,0.00
2018,08,05,00,57,0.00
2018,08,05,00,58,0.00
2018,08,05,00,59,0.00
2018,08,05,01,00,0.00
2018,08,05,01,01,0.00
2018,08,05,01,02,0.00
2018,08,05,01,03,0.00
2018,08,05,01,04,0.00
2018,08,05,01,05,0.00
2018,08,05,01,06,0.00
2018,08,05,01,07,0.00
2018,08,05,01,08,0.00
2018,08,05,01,09,0.00
2018,08,05,01,10,0.00
2018,08,05,01,11,0.00
2018,08,05,01,12,0.00
2018,08,05,01,13,0.00
2018,08,05,01,14,0.00
2018,08,05,01,15,0.00
2018,08,05,01,16,0.00
2018,08,05,01,17,0.00
2018,08,05,01,18,0.00
2018,08,05,01,19,0.00
2018,08,05,01,20,0.00
2018,08,05,01,21,0.00
2018,08,05,01,22,0.00
2018,08,05,01,23,0.00
2018,08,05,01,24,0.00
2018,08,05,01,25,0.00
2018,08,05,01,26,0.00
2018,08,05,01,27,0.00
2018,08,05,01,28,0.00
2018,08,05,01,29,0.00
2018,08,05,01,30,0.00
2018,08,05,01,31,0.00
2018,08,05,01,32,0.00
2018,08,05,01,33,0.00
2018,08,05,01,34,0.00
2018,08,05,01,35,0.00
2018,08,05,01,36,0.00
2018,08,05,01,37,0.00
2018,08,05,01,38,0.00
2018,08,05,01,39,0.00
2018,08,05,01,40,0.00
2018,08,05,01,41,0.00
2018,08,05,01,42,0.00
2018,08,05,01,43,0.00
2018,08,05,01,44,0.00
2018,08,05,01,45,0.00
2018,08,05,01,46,0.00
2018,08,05,01,47,0.00
2018,08,05,01,48,0.00
2018,08,05,01,49,0.00
2018,08,05,01,50,0.00
2018,08,05,01,51,0.00
2018,08,05,01,52,0.00
2018,08,05,01,53,0.00
2018,08,05,01,54,0.00
2018,08,05,01,55,0.00
2018,08,05,01,56,0.00
2018,08,05,01,57,0.00
2018,08,05,01,58,0.00
2018,08,05,01,59,0.00
2018,08,05,02,00,0.00
2018,08,05,02,01,0.00
2018,08,05,02,02,0.00
2018,08,05,02,03,0.00
2018,08,05,02,04,0.00
2018,08,05,02,05,0.00
2018,08,05,02,06,0.00
2018,08,05,02,07,0.00
2018,08,05,02,08,0.00
2018,08,05,02,09,0.00
2018,08,05,02,10,0.00
2018,08,05,02,11,0.00
2018,08,05,02,12,0.00
2018,08,05,02,13,0.00
2018,08,05,02,14,0.00
2018,08,05,02,15,0.00
2018,08,05,02,16,0.00
2018,08,05,02,17,0.00
2018,08,05,02,18,0.00
2018,08,05,02,19,0.00
2018,08,05,02,20,0.00
2018,08,05,02,21,0.00
2018,08,05,02,22,0.00
2018,08,05,02,23,0.00
2018,08,05,02,24,0.00
2018,08,05,02,25,0.00
2018,08,05,02,26,0.00
2018,08,05,02,27,0.00
2018,08,05,02,28,0.00
2018,08,05,02,29,0.00
2018,08,05,02,30,0.00
2018,08,05,02,31,0.00
2018,08,05,02,32,0.00
2018,08,05,02,33,0.00
2018,08,05,02,34,0.00
2018,08,05,02,35,0.00
2018,08,05,02,36,0.00
2018,08,05,02,37,0.00
2018,08,05,02,38,0.00
2018,08,05,02,39,0.00
2018,08,05,02,40,0.00
2018,08,05,02,41,0.00
2018,08,05,02,42,0.00
2018,08,05,02,43,0.00
2018,08,05,02,44,0.00
2018,08,05,02,45,0.00
2018,08,05,02,46,0.00
2018,08,05,02,47,0.00
2018,08,05,02,48,0.00
2018,08,05,02,49,0.00
2018,08,05,02,50,0.00
2018,08,05,02,51,0.00
2018,08,05,02,52,0.00
2018,08,05,02,53,0.00
2018,08,05,02,54,0.00
2018,08,05,02,55,0.00
2018,08,05,02,56,0.00
2018,08,05,02,57,0.00
2018,08,05,02,58,0.00
2018,08,05,02,59,0.00
2018,08,05,03,00,0.00
2018,08,05,03,01,0.00
2018,08,05,03,02,0.00
2018,08,05,03,03,0.00
2018,08,05,03,04,0.00
2018,08,05,03,05,0.00
2018,08,05,03,06,0.00
2018,08,05,03,07,0.00
2018,08,05,03,08,0.00
2018,08,05,03,09,0.00
2018,08,05,03,10,0.00
2018,08,05,03,11,0.00
2018,08,05,03,12,0.00
2018,08,05,03,13,0.00
2018,08,05,03,14,0.00
2018,08,05,03,15,0.00
2018,08,05,03,16,0.00
2018,08,05,03,17,0.00
2018,08,05,03,18,0.00
2018,08,05,03,19,0.00
2018,08,05,03,20,0.00
2018,08,05,03,21,0.00
2018,08,05,03,22,0.00
2018,08,05,03,23,0.00
2018,08,05,03,24,0.00
2018,08,05,03,25,0.00
2018,08,05,03,26,0.00
2018,08,05,03,27,0.00
2018,08,05,03,28,0.00
2018,08,05,03,29,0.00
2018,08,05,03,30,0.00
2018,08,05,03,31,0.00
2018,08,05,03,32,0.00
2018,08,05,03,33,0.00
2018,08,05,03,34,0.00
2018,08,05,03,35,0.00
2018,08,05,03,36,0.00
2018,08,05,03,37,0.00
2018,08,05,03,38,0.00
2018,08,05,03,39,0.00
2018,08,05,03,40,0.00
2018,08,05,03,41,0.00
2018,08,05,03,42,0.00
2018,08,05,03,43,0.00
2018,08,05,03,44,0.00
2018,08,05,03,45,0.00
2018,08,05,03,46,0.00
2018,08,05,03,47,0.00
2018,08,05,03,48,0.00
2018,08,05,03,49,0.00
2018,08,05,03,50,0.00
2018,08,05,03,51,0.00
2018,08,05,03,52,0.00
2018,08,05,03,53,0.00
2018,08,05,03,54,0.00
2018,08,05,03,55,0.00
2018,08,05,03,56,0.00
2018,08,05,03,57,0.00
2018,08,05,03,58,0.00
2018,08,05,03,59,0.00
2018,08,05,04,00,0.00
2018,08,05,04,01,0.00
2018,08,05,04,02,0.00
2018,08,05,04,03,0.00
2018,08,05,04,04,0.00
2018,08,05,04,05,0.00
2018,08,05,04,06,0.00
2018,08,05,04,07,0.00
2018,08,05,04,08,0.00
2018,08,05,04,09,0.00
2018,08,05,04,10,0.00
2018,08,05,04,11,0.00
2018,08,05,04,12,0.00
2018,08,05,04,13,0.00
2018,08,05,04,14,0.00
2018,08,05,04,15,0.00
2018,08,05,04,16,0.00
2018,08,05,04,17,0.00
2018,08,05,04,18,0.00
2018,08,05,04,19,0.00
2018,08,05,04,20,0.00
2018,08,05,04,21,0.00
2018,08,05,04,22,0.00
2018,08,05,04,23,0.00
2018,08,05,04,24,0.00
2018,08,05,04,25,0.00
2018,08,05,04,26,0.00
2018,08,05,04,27,0.00
2018,08,05,04,28,0.00
2018,08,05,04,29,0.00
2018,08,05,04,30,0.00
2018,08,05,04,31,0.00
2018,08,05,04,32,0.00
2018,08,05,04,33,0.00
2018,08,05,04,34,0.00
2018,08,05,04,35,0.00
2018,08,05,04,36,0.00
2018,08,05,04,37,0.00
2018,08,05,04,38,0.00
2018,08,05,04,39,0.00
2018,08,05,04,40,0.00
2018,08,05,04,41,0.00
2018,08,05,04,42,0.00
2018,08,05,04,43,0.00
2018,08,05,04,44,0.00
2018,08,05,04,45,0.00
2018,08,05,04,46,0.00
2018,08,05,04,47,0.00
2018,08,05,04,48,0.00
2018,08,05,04,49,0.00
2018,08,05,04,50,0.00
2018,08,05,04,51,0.00
2018,08,05,04,52,0.00
2018,08,05,04,53,0.00
2018,08,05,04,54,0.00
2018,08,05,04,55,0.00
2018,08,05,04,56,0.00
2018,08,05,04,57,0.00
2018,08,05,04,58,0.00
2018,08,05,04,59,0.00
2018,08,05,05,00,0.00
2018,08,05,05,01,0.00
2018,08,05,05,02,0.00
2018,08,05,05,03,0.00
2018,08,05,05,04,0.00
2018,08,05,05,05,0.00
2018,08,05,05,06,0.00
2018,08,05,05,07,0.00
2018,08,05,05,08,0.00
2018,08,05,05,09,0.00
2018,08,05,05,10,0.00
2018,08,05,05,11,0.00
2018,08,05,05,12,0.00
2018,08,05,05,13,0.00
2018,08,05,05,14,0.00
2018,08,05,05,15,0.00
2018,08,05,05,16,0.00
2018,08,05,05,17,0.00
2018,08,05,05,18,0.00
2018,08,05,05,19,0.00
2018,08,05,05,20,0.00
2018,08,05,05,21,0.00
2018,08,05,05,22,0.00
2018,08,05,05,23,0.00
2018,08,05,05,24,0.00
2018,08,05,05,25,0.00
2018,08,05,05,26,0.00
2018,08,05,05,27,0.00
2018,08,05,05,28,0.00
2018,08,05,05,29,0.00
2018,08,05,05,30,0.00
2018,08,05,05,31,0.00
2018,08,05,05,32,0.00
2018,08,05,05,33,0.00
2018,08,05,05,34,0.00
2018,08,05,05,35,0.00
2018,08,05,05,36,0.00
2018,08,05,05,37,0.00
2018,08,05,05,38,0.00
2018,08,05,05,39,0.00
2018,08,05,05,40,0.00
2018,08,05,05,41,0.00
2018,08,05,05,42,0.00
2018,08,05,05,43,0.00
2018,08,05,05,44,0.00
2018,08,05,05,45,0.00
2018,08,05,05,46,0.00
2018,08,05,05,47,0.00
2018,08,05,05,48,0.00
2018,08,05,05,49,0.00
2018,08,05,05,50,0.00
2018,08,05,05,51,0.00
2018,08,05,05,52,0.00
2018,08,05,05,53,0.00
2018,08,05,05,54,5.00
2018,08,05,05,55,5.00
2018,08,05,05,56,5.00
2018,08,05,05,57,5.00
2018,08,05,05,58,6.20
2018,08,05,05,59,7.00
2018,08,05,06,00,7.00
2018,08,05,06,01,7.00
2018,08,05,06,02,7.50
2018,08,05,06,03,9.00
2018,08,05,06,04,9.00
2018,08,05,06,05,9.00
2018,08,05,06,06,10.50
2018,08,05,06,07,11.00
2018,08,05,06,08,11.00
2018,08,05,06,09,11.20
2018,08,05,06,10,12.00
2018,08,05,06,11,12.00
2018,08,05,06,12,13.20
2018,08,05,06,13,14.00
2018,08,05,06,14,14.00
2018,08,05,06,15,14.20
2018,08,05,06,16,16.00
2018,08,05,06,17,16.00
2018,08,05,06,18,16.00
2018,08,05,06,19,17.20
2018,08,05,06,20,18.00
2018,08,05,06,21,18.00
2018,08,05,06,22,18.00
2018,08,05,06,23,18.00
2018,08,05,06,24,18.00
2018,08,05,06,25,18.00
2018,08,05,06,26,18.00
2018,08,05,06,27,18.70
2018,08,05,06,28,19.00
2018,08,05,06,29,18.00
2018,08,05,06,30,18.00
2018,08,05,06,31,18.00
2018,08,05,06,32,18.00
2018,08,05,06,33,18.00
2018,08,05,06,34,18.00
2018,08,05,06,35,18.00
2018,08,05,06,36,18.00
2018,08,05,06,37,18.00
2018,08,05,06,38,18.00
2018,08,05,06,39,18.00
2018,08,05,06,40,18.00
2018,08,05,06,41,18.00
2018,08,05,06,42,18.00
2018,08,05,06,43,18.00
2018,08,05,06,44,18.00
2018,08,05,06,45,18.00
2018,08,05,06,46,18.00
2018,08,05,06,47,18.00
2018,08,05,06,48,18.00
2018,08,05,06,49,18.00
2018,08,05,06,50,18.00
2018,08,05,06,51,18.00
2018,08,05,06,52,18.00
2018,08,05,06,53,18.00
2018,08,05,06,54,18.00
2018,08,05,06,55,18.00
2018,08,05,06,56,18.00
2018,08,05,06,57,18.00
2018,08,05,06,58,18.00
2018,08,05,06,59,18.00
2018,08,05,07,00,18.00
2018,08,05,07,01,18.60
2018,08,05,07,02,19.00
2018,08,05,07,03,19.00
2018,08,05,07,04,21.00
2018,08,05,07,05,21.50
2018,08,05,07,06,23.00
2018,08,05,07,07,24.00
2018,08,05,07,08,25.00
2018,08,05,07,09,25.70
2018,08,05,07,10,26.00
2018,08,05,07,11,28.00
2018,08,05,07,12,28.50
2018,08,05,07,13,30.00
2018,08,05,07,14,31.00
2018,08,05,07,15,32.00
2018,08,05,07,16,32.70
2018,08,05,07,17,33.00
2018,08,05,07,18,33.20
2018,08,05,07,19,35.00
2018,08,05,07,20,35.00
2018,08,05,07,21,35.00
2018,08,05,07,22,35.00
2018,08,05,07,23,35.00
2018,08,05,07,24,35.00
2018,08,05,07,25,35.00
2018,08,05,07,26,35.00
2018,08,05,07,27,35.00
2018,08,05,07,28,35.00
2018,08,05,07,29,35.00
2018,08,05,07,30,35.00
2018,08,05,07,31,35.00
2018,08,05,07,32,35.00
2018,08,05,07,33,35.00
2018,08,05,07,34,34.20
2018,08,05,07,35,33.00
2018,08,05,07,36,34.20
2018,08,05,07,37,33.50
2018,08,05,07,38,33.00
2018,08,05,07,39,33.00
2018,08,05,07,40,33.00
2018,08,05,07,41,33.00
2018,08,05,07,42,33.00
2018,08,05,07,43,33.00
2018,08,05,07,44,33.00
2018,08,05,07,45,33.00
2018,08,05,07,46,32.00
2018,08,05,07,47,32.00
2018,08,05,07,48,32.30
2018,08,05,07,49,33.00
2018,08,05,07,50,33.00
2018,08,05,07,51,33.00
2018,08,05,07,52,33.00
2018,08,05,07,53,34.80
2018,08,05,07,54,33.00
2018,08,05,07,55,33.00
2018,08,05,07,56,34.90
2018,08,05,07,57,38.20
2018,08,05,07,58,39.00
2018,08,05,07,59,39.80
2018,08,05,08,00,40.00
2018,08,05,08,01,40.50
2018,08,05,08,02,41.30
2018,08,05,08,03,40.00
2018,08,05,08,04,41.20
2018,08,05,08,05,42.00
2018,08,05,08,06,40.20
2018,08,05,08,07,40.00
2018,08,05,08,08,40.00
2018,08,05,08,09,40.00
2018,08,05,08,10,40.00
2018,08,05,08,11,40.00
2018,08,05,08,12,40.00
2018,08,05,08,13,40.00
2018,08,05,08,14,42.20
2018,08,05,08,15,45.20
2018,08,05,08,16,49.00
2018,08,05,08,17,49.00
2018,08,05,08,18,51.50
2018,08,05,08,19,53.00
2018,08,05,08,20,53.00
2018,08,05,08,21,49.00
2018,08,05,08,22,48.50
2018,08,05,08,23,46.70
2018,08,05,08,24,45.00
2018,08,05,08,25,45.20
2018,08,05,08,26,43.10
2018,08,05,08,27,40.20
2018,08,05,08,28,41.90
2018,08,05,08,29,42.00
2018,08,05,08,30,42.00
2018,08,05,08,31,43.00
2018,08,05,08,32,44.00
2018,08,05,08,33,42.50
2018,08,05,08,34,42.00
2018,08,05,08,35,39.00
2018,08,05,08,36,39.20
2018,08,05,08,37,40.80
2018,08,05,08,38,43.00
2018,08,05,08,39,44.00
2018,08,05,08,40,45.50
2018,08,05,08,41,46.00
2018,08,05,08,42,46.00
2018,08,05,08,43,46.00
2018,08,05,08,44,46.00
2018,08,05,08,45,46.00
2018,08,05,08,46,46.00
2018,08,05,08,47,46.00
2018,08,05,08,48,46.00
2018,08,05,08,49,45.80
2018,08,05,08,50,44.00
2018,08,05,08,51,42.50
2018,08,05,08,52,37.60
2018,08,05,08,53,33.20
2018,08,05,08,54,32.00
2018,08,05,08,55,32.00
2018,08,05,08,56,32.00
2018,08,05,08,57,32.00
2018,08,05,08,58,32.00
2018,08,05,08,59,32.00
2018,08,05,09,00,32.00
2018,08,05,09,01,34.30
2018,08,05,09,02,35.00
2018,08,05,09,03,35.20
2018,08,05,09,04,37.80
2018,08,05,09,05,40.00
2018,08,05,09,06,40.00
2018,08,05,09,07,38.20
2018,08,05,09,08,39.20
2018,08,05,09,09,41.80
2018,08,05,09,10,42.00
2018,08,05,09,11,42.00
2018,08,05,09,12,42.00
2018,08,05,09,13,42.00
2018,08,05,09,14,42.00
2018,08,05,09,15,43.50
2018,08,05,09,16,44.00
2018,08,05,09,17,40.40
2018,08,05,09,18,42.00
2018,08,05,09,19,41.30
2018,08,05,09,20,40.00
2018,08,05,09,21,39.40
2018,08,05,09,22,39.00
2018,08,05,09,23,37.20
2018,08,05,09,24,34.70
2018,08,05,09,25,31.50
2018,08,05,09,26,30.00
2018,08,05,09,27,30.00
2018,08,05,09,28,31.20
2018,08,05,09,29,30.50
2018,08,05,09,30,31.70
2018,08,05,09,31,33.00
2018,08,05,09,32,33.50
2018,08,05,09,33,35.70
2018,08,05,09,34,37.00
2018,08,05,09,35,37.00
2018,08,05,09,36,37.00
2018,08,05,09,37,37.00
2018,08,05,09,38,37.00
2018,08,05,09,39,37.00
2018,08,05,09,40,37.00
2018,08,05,09,41,37.00
2018,08,05,09,42,37.00
2018,08,05,09,43,35.50
2018,08,05,09,44,35.00
2018,08,05,09,45,37.00
2018,08,05,09,46,37.00
2018,08,05,09,47,37.00
2018,08,05,09,48,37.00
2018,08,05,09,49,37.00
2018,08,05,09,50,37.00
2018,08,05,09,51,37.00
2018,08,05,09,52,39.00
2018,08,05,09,53,39.00
2018,08,05,09,54,39.00
2018,08,05,09,55,39.50
2018,08,05,09,56,40.00
2018,08,05,09,57,40.00
2018,08,05,09,58,40.00
2018,08,05,09,59,42.00
2018,08,05,10,00,42.00
2018,08,05,10,01,42.00
2018,08,05,10,02,43.00
2018,08,05,10,03,44.00
2018,08,05,10,04,44.00
2018,08,05,10,05,44.00
2018,08,05,10,06,44.00
2018,08,05,10,07,44.00
2018,08,05,10,08,44.70
2018,08,05,10,09,45.00
2018,08,05,10,10,42.80
2018,08,05,10,11,43.50
2018,08,05,10,12,42.30
2018,08,05,10,13,43.80
2018,08,05,10,14,42.50
2018,08,05,10,15,43.30
2018,08,05,10,16,42.00
2018,08,05,10,17,42.00
2018,08,05,10,18,40.50
2018,08,05,10,19,40.00
2018,08,05,10,20,40.00
2018,08,05,10,21,40.00
2018,08,05,10,22,40.00
2018,08,05,10,23,40.00
2018,08,05,10,24,40.00
2018,08,05,10,25,40.00
2018,08,05,10,26,41.80
2018,08,05,10,27,42.30
2018,08,05,10,28,47.60
2018,08,05,10,29,57.60
2018,08,05,10,30,63.60
2018,08,05,10,31,58.30
2018,08,05,10,32,49.40
2018,08,05,10,33,42.60
2018,08,05,10,34,44.20
2018,08,05,10,35,45.50
2018,08,05,10,36,43.20
2018,08,05,10,37,43.00
2018,08,05,10,38,42.80
2018,08,05,10,39,42.00
2018,08,05,10,40,42.00
2018,08,05,10,41,42.00
2018,08,05,10,42,42.00
2018,08,05,10,43,42.00
2018,08,05,10,44,42.00
2018,08,05,10,45,42.00
2018,08,05,10,46,42.00
2018,08,05,10,47,43.70
2018,08,05,10,48,44.40
2018,08,05,10,49,51.10
2018,08,05,10,50,54.20
2018,08,05,10,51,45.50
2018,08,05,10,52,44.00
2018,08,05,10,53,44.00
2018,08,05,10,54,45.80
2018,08,05,10,55,45.80
2018,08,05,10,56,44.00
2018,08,05,10,57,44.80
2018,08,05,10,58,46.50
2018,08,05,10,59,47.00
2018,08,05,11,00,46.30
2018,08,05,11,01,46.00
2018,08,05,11,02,46.10
2018,08,05,11,03,47.00
2018,08,05,11,04,47.70
2018,08,05,11,05,49.00
2018,08,05,11,06,52.00
2018,08,05,11,07,68.60
2018,08,05,11,08,87.50
2018,08,05,11,09,80.40
2018,08,05,11,10,73.00
2018,08,05,11,11,58.50
2018,08,05,11,12,47.00
2018,08,05,11,13,47.00
2018,08,05,11,14,48.50
2018,08,05,11,15,53.20
2018,08,05,11,16,53.40
2018,08,05,11,17,48.50
2018,08,05,11,18,47.00
2018,08,05,11,19,47.00
2018,08,05,11,20,48.20
2018,08,05,11,21,49.00
2018,08,05,11,22,49.00
2018,08,05,11,23,49.00
2018,08,05,11,24,49.00
2018,08,05,11,25,49.00
2018,08,05,11,26,49.00
2018,08,05,11,27,49.00
2018,08,05,11,28,49.00
2018,08,05,11,29,49.00
2018,08,05,11,30,50.90
2018,08,05,11,31,51.00
2018,08,05,11,32,51.00
2018,08,05,11,33,51.00
2018,08,05,11,34,51.00
2018,08,05,11,35,51.00
2018,08,05,11,36,51.00
2018,08,05,11,37,53.00
2018,08,05,11,38,53.00
2018,08,05,11,39,53.00
2018,08,05,11,40,53.00
2018,08,05,11,41,53.00
2018,08,05,11,42,53.00
2018,08,05,11,43,53.80
2018,08,05,11,44,55.30
2018,08,05,11,45,76.80
2018,08,05,11,46,116.00
2018,08,05,11,47,188.00
2018,08,05,11,48,272.00
2018,08,05,11,49,137.50
2018,08,05,11,50,65.90
2018,08,05,11,51,81.90
2018,08,05,11,52,60.10
2018,08,05,11,53,65.10
2018,08,05,11,54,61.00
2018,08,05,11,55,58.80
2018,08,05,11,56,74.80
2018,08,05,11,57,85.20
2018,08,05,11,58,67.20
2018,08,05,11,59,67.60
2018,08,05,12,00,62.00
2018,08,05,12,01,60.00
2018,08,05,12,02,60.00
2018,08,05,12,03,61.50
2018,08,05,12,04,82.30
2018,08,05,12,05,63.80
2018,08,05,12,06,67.60
2018,08,05,12,07,60.00
2018,08,05,12,08,61.00
2018,08,05,12,09,62.60
2018,08,05,12,10,62.30
2018,08,05,12,11,64.50
2018,08,05,12,12,62.90
2018,08,05,12,13,62.20
2018,08,05,12,14,63.00
2018,08,05,12,15,62.50
2018,08,05,12,16,62.00
2018,08,05,12,17,62.00
2018,08,05,12,18,62.00
2018,08,05,12,19,66.40
2018,08,05,12,20,80.10
2018,08,05,12,21,83.80
2018,08,05,12,22,67.00
2018,08,05,12,23,62.60
2018,08,05,12,24,64.50
2018,08,05,12,25,63.30
2018,08,05,12,26,62.90
2018,08,05,12,27,62.20
2018,08,05,12,28,63.00
2018,08,05,12,29,62.50
2018,08,05,12,30,68.20
2018,08,05,12,31,74.90
2018,08,05,12,32,78.60
2018,08,05,12,33,80.50
2018,08,05,12,34,74.70
2018,08,05,12,35,70.80
2018,08,05,12,36,92.40
2018,08,05,12,37,121.10
2018,08,05,12,38,130.00
2018,08,05,12,39,76.00
2018,08,05,12,40,74.00
2018,08,05,12,41,80.00
2018,08,05,12,42,104.20
2018,08,05,12,43,115.80
2018,08,05,12,44,89.00
2018,08,05,12,45,76.30
2018,08,05,12,46,77.20
2018,08,05,12,47,73.80
2018,08,05,12,48,72.50
2018,08,05,12,49,74.80
2018,08,05,12,50,77.40
2018,08,05,12,51,79.00
2018,08,05,12,52,79.00
2018,08,05,12,53,390.40
2018,08,05,12,54,431.00
2018,08,05,12,55,505.10
2018,08,05,12,56,752.00
2018,08,05,12,57,653.60
2018,08,05,12,58,551.90
2018,08,05,12,59,491.40
2018,08,05,13,00,422.90
2018,08,05,13,01,417.00
2018,08,05,13,02,417.00
2018,08,05,13,03,417.00
2018,08,05,13,04,605.20
2018,08,05,13,05,809.60
2018,08,05,13,06,809.30
2018,08,05,13,07,809.00
2018,08,05,13,08,809.40
2018,08,05,13,09,812.50
2018,08,05,13,10,814.00
2018,08,05,13,11,814.00
2018,08,05,13,12,814.00
2018,08,05,13,13,815.50
2018,08,05,13,14,816.90
2018,08,05,13,15,814.20
2018,08,05,13,16,816.00
2018,08,05,13,17,812.50
2018,08,05,13,18,808.00
2018,08,05,13,19,806.70
2018,08,05,13,20,806.50
2018,08,05,13,21,807.00
2018,08,05,13,22,818.40
2018,08,05,13,23,811.50
2018,08,05,13,24,807.20
2018,08,05,13,25,811.50
2018,08,05,13,26,812.00
2018,08,05,13,27,810.30
2018,08,05,13,28,815.80
2018,08,05,13,29,822.00
2018,08,05,13,30,815.20
2018,08,05,13,31,821.40
2018,08,05,13,32,812.00
2018,08,05,13,33,800.50
2018,08,05,13,34,823.30
2018,08,05,13,35,824.10
2018,08,05,13,36,826.40
2018,08,05,13,37,828.20
2018,08,05,13,38,815.90
2018,08,05,13,39,812.00
2018,08,05,13,40,820.00
2018,08,05,13,41,828.40
2018,08,05,13,42,832.50
2018,08,05,13,43,831.20
2018,08,05,13,44,831.80
2018,08,05,13,45,828.70
2018,08,05,13,46,830.00
2018,08,05,13,47,830.60
2018,08,05,13,48,831.00
2018,08,05,13,49,830.20
2018,08,05,13,50,828.20
2018,08,05,13,51,831.00
2018,08,05,13,52,830.70
2018,08,05,13,53,830.50
2018,08,05,13,54,830.40
2018,08,05,13,55,830.70
2018,08,05,13,56,831.00
2018,08,05,13,57,831.00
2018,08,05,13,58,831.00
2018,08,05,13,59,831.00
2018,08,05,14,00,827.20
2018,08,05,14,01,764.50
2018,08,05,14,02,766.00
2018,08,05,14,03,738.40
2018,08,05,14,04,707.40
2018,08,05,14,05,716.90
2018,08,05,14,06,790.10
2018,08,05,14,07,829.00
2018,08,05,14,08,830.60
2018,08,05,14,09,830.20
2018,08,05,14,10,824.90
2018,08,05,14,11,826.00
2018,08,05,14,12,826.00
2018,08,05,14,13,826.70
2018,08,05,14,14,827.00
2018,08,05,14,15,826.00
2018,08,05,14,16,823.70
2018,08,05,14,17,825.50
2018,08,05,14,18,824.00
2018,08,05,14,19,823.80
2018,08,05,14,20,823.00
2018,08,05,14,21,823.00
2018,08,05,14,22,821.80
2018,08,05,14,23,822.50
2018,08,05,14,24,821.20
2018,08,05,14,25,819.00
2018,08,05,14,26,819.50
2018,08,05,14,27,820.30
2018,08,05,14,28,820.00
2018,08,05,14,29,818.60
2018,08,05,14,30,818.50
2018,08,05,14,31,817.30
2018,08,05,14,32,816.00
2018,08,05,14,33,815.50
2018,08,05,14,34,814.00
2018,08,05,14,35,812.00
2018,08,05,14,36,813.70
2018,08,05,14,37,814.50
2018,08,05,14,38,812.30
2018,08,05,14,39,811.80
2018,08,05,14,40,810.00
2018,08,05,14,41,810.00
2018,08,05,14,42,808.60
2018,08,05,14,43,808.20
2018,08,05,14,44,809.00
2018,08,05,14,45,805.60
2018,08,05,14,46,802.30
2018,08,05,14,47,805.00
2018,08,05,14,48,804.30
2018,08,05,14,49,802.50
2018,08,05,14,50,802.60
2018,08,05,14,51,802.20
2018,08,05,14,52,802.00
2018,08,05,14,53,802.00
2018,08,05,14,54,801.50
2018,08,05,14,55,800.70
2018,08,05,14,56,800.20
2018,08,05,14,57,798.00
2018,08,05,14,58,796.50
2018,08,05,14,59,796.00
2018,08,05,15,00,795.00
2018,08,05,15,01,794.50
2018,08,05,15,02,792.30
2018,08,05,15,03,790.10
2018,08,05,15,04,787.20
2018,08,05,15,05,786.00
2018,08,05,15,06,786.00
2018,08,05,15,07,787.50
2018,08,05,15,08,784.50
2018,08,05,15,09,786.00
2018,08,05,15,10,785.10
2018,08,05,15,11,784.00
2018,08,05,15,12,780.30
2018,08,05,15,13,779.90
2018,08,05,15,14,779.00
2018,08,05,15,15,779.00
2018,08,05,15,16,777.60
2018,08,05,15,17,775.00
2018,08,05,15,18,775.00
2018,08,05,15,19,773.50
2018,08,05,15,20,773.00
2018,08,05,15,21,772.00
2018,08,05,15,22,770.90
2018,08,05,15,23,766.90
2018,08,05,15,24,765.50
2018,08,05,15,25,763.00
2018,08,05,15,26,763.90
2018,08,05,15,27,761.60
2018,08,05,15,28,760.70
2018,08,05,15,29,758.20
2018,08,05,15,30,757.30
2018,08,05,15,31,754.00
2018,08,05,15,32,752.80
2018,08,05,15,33,753.50
2018,08,05,15,34,751.50
2018,08,05,15,35,750.80
2018,08,05,15,36,749.00
2018,08,05,15,37,748.30
2018,08,05,15,38,746.00
2018,08,05,15,39,745.00
2018,08,05,15,40,742.80
2018,08,05,15,41,742.00
2018,08,05,15,42,740.10
2018,08,05,15,43,739.30
2018,08,05,15,44,737.00
2018,08,05,15,45,736.00
2018,08,05,15,46,733.70
2018,08,05,15,47,733.00
2018,08,05,15,48,729.60
2018,08,05,15,49,726.20
2018,08,05,15,50,727.00
2018,08,05,15,51,723.00
2018,08,05,15,52,720.00
2018,08,05,15,53,719.00
2018,08,05,15,54,719.00
2018,08,05,15,55,714.80
2018,08,05,15,56,711.60
2018,08,05,15,57,708.50
2018,08,05,15,58,708.90
2018,08,05,15,59,708.40
2018,08,05,16,00,692.80
2018,08,05,16,01,667.60
2018,08,05,16,02,673.20
2018,08,05,16,03,679.20
2018,08,05,16,04,678.80
2018,08,05,16,05,670.40
2018,08,05,16,06,678.40
2018,08,05,16,07,682.70
2018,08,05,16,08,679.30
2018,08,05,16,09,671.40
2018,08,05,16,10,669.50
2018,08,05,16,11,665.30
2018,08,05,16,12,663.00
2018,08,05,16,13,660.00
2018,08,05,16,14,658.30
2018,08,05,16,15,659.00
2018,08,05,16,16,656.30
2018,08,05,16,17,657.00
2018,08,05,16,18,657.00
2018,08,05,16,19,656.70
2018,08,05,16,20,654.10
2018,08,05,16,21,650.80
2018,08,05,16,22,649.30
2018,08,05,16,23,649.00
2018,08,05,16,24,650.20
2018,08,05,16,25,652.50
2018,08,05,16,26,653.30
2018,08,05,16,27,653.00
2018,08,05,16,28,652.80
2018,08,05,16,29,649.70
2018,08,05,16,30,645.60
2018,08,05,16,31,622.20
2018,08,05,16,32,555.00
2018,08,05,16,33,555.00
2018,08,05,16,34,338.50
2018,08,05,16,35,84.20
2018,08,05,16,36,86.60
2018,08,05,16,37,86.30
2018,08,05,16,38,83.00
2018,08,05,16,39,82.50
2018,08,05,16,40,81.00
2018,08,05,16,41,80.00
2018,08,05,16,42,79.00
2018,08,05,16,43,79.00
2018,08,05,16,44,77.20
2018,08,05,16,45,77.00
2018,08,05,16,46,76.80
2018,08,05,16,47,77.10
2018,08,05,16,48,79.00
2018,08,05,16,49,79.00
2018,08,05,16,50,79.00
2018,08,05,16,51,82.40
2018,08,05,16,52,89.70
2018,08,05,16,53,118.00
2018,08,05,16,54,118.00
2018,08,05,16,55,243.50
2018,08,05,16,56,390.00
2018,08,05,16,57,264.30
2018,08,05,16,58,218.00
2018,08,05,16,59,257.30
2018,08,05,17,00,549.80
2018,08,05,17,01,491.70
2018,08,05,17,02,414.40
2018,08,05,17,03,378.00
2018,08,05,17,04,227.50
2018,08,05,17,05,150.90
2018,08,05,17,06,127.00
2018,08,05,17,07,123.50
2018,08,05,17,08,162.30
2018,08,05,17,09,234.30
2018,08,05,17,10,278.50
2018,08,05,17,11,262.20
2018,08,05,17,12,232.80
2018,08,05,17,13,275.30
2018,08,05,17,14,283.60
2018,08,05,17,15,279.00
2018,08,05,17,16,412.00
2018,08,05,17,17,513.20
2018,08,05,17,18,459.80
2018,08,05,17,19,467.50
2018,08,05,17,20,542.70
2018,08,05,17,21,539.50
2018,08,05,17,22,537.30
2018,08,05,17,23,534.50